Location: São Paulo
(23.5507°S, 46.6334°W)
Time: 19:10:58
(UTC-03:00)

Vanguard 2 Rocket - Pass Details

Date: 16 February 2026
Orbit: 553 x 3286 km, 32.9° (Epoch: 11 March)

Event Time Altitude Azimuth Distance (km) Brightness Sun altitude
Exits shadow 01:17:32 16° 118° (ESE) 2,871 9.7 -51.5°
Drops below altitude 10° 01:19:21 10° 116° (ESE) 3,540 10.2 -51.3°
Sets 01:23:24 0° 114° (ESE) 4,985 11.1 -51.0°
